EW7473 Weather Reports


Display with metric or nautical units.
time (UTC)temp
F
wind
direction
speed
MPH
gust
MPH
rain 1hr
in
rain 24hr
in
rain mn
in
humidity
%
barometer
mb
20200219100544 42 10 1.0 5.0 0.00 0.01 0.00 69 1027.2
20200219095011 42 9 1.0 7.0 0.00 0.01 0.00 69 1027.1
20200219094604 42 11 1.0 6.0 0.00 0.01 0.00 69 1027.1
20200219094049 42 9 1.0 8.0 0.00 0.01 0.00 69 1027.1
20200219092516 43 9 1.0 8.0 0.00 0.01 0.00 68 1027.2
20200219092035 43 9 1.0 11.0 0.00 0.01 0.00 68 1027.1
20200219090013 43 10 3.0 10.0 0.00 0.01 0.00 68 1027.3
20200219085533 44 9 1.0 8.0 0.00 0.01 0.00 68 1027.4
20200219085052 44 9 0.0 8.0 0.00 0.01 0.00 68 1027.3
20200219083505 44 10 2.0 8.0 0.00 0.01 0.00 68 1027.3
20200219083039 44 10 1.0 9.0 0.00 0.01 0.00 68 1027.4
20200219082531 44 10 1.0 6.0 0.00 0.01 0.00 68 1027.4
20200219082053 44 9 1.0 6.0 0.00 0.01 0.00 68 1027.4
20200219080020 44 9 2.0 9.0 0.00 0.01 0.00 68 1027.5
20200219075535 44 9 2.0 9.0 0.00 0.01 0.00 67 1027.5
20200219075055 44 10 1.0 8.0 0.00 0.01 0.00 67 1027.2
20200219073515 45 10 1.0 9.0 0.00 0.01 0.00 67 1027.6
20200219073103 45 10 2.0 9.0 0.00 0.01 0.00 67 1027.5
20200219072557 45 10 2.0 8.0 0.00 0.01 0.00 67 1027.4
20200219071017 45 10 1.0 7.0 0.00 0.01 0.00 67 1027.7
20200219070556 45 9 1.0 6.0 0.00 0.01 0.00 67 1027.7
20200219070118 45 10 3.0 6.0 0.00 0.01 0.00 67 1027.7
20200219064521 45 9 2.0 8.0 0.00 0.01 0.00 66 1027.9
20200219064041 45 9 2.0 8.0 0.00 0.01 0.00 67 1027.7
20200219063603 46 9 2.0 11.0 0.00 0.01 0.00 67 1027.6
20200219062502 46 9 1.0 8.0 0.00 0.01 0.00 66 1027.3
20200219062015 46 11 2.0 8.0 0.00 0.01 0.00 66 1027.2
20200219061608 46 10 1.0 8.0 0.00 0.01 0.00 66 1027.4
20200219060002 46 9 1.0 8.0 0.00 0.01 0.01 66 1027.4
20200219055535 46 9 2.0 8.0 0.00 0.01 0.01 66 1027.3
20200219055057 46 9 0.0 8.0 0.00 0.01 0.01 66 1027.5
20200219054527 46 10 2.0 7.0 0.00 0.01 0.01 65 1027.5
20200219054033 46 10 2.0 4.0 0.00 0.01 0.01 65 1027.4
20200219053544 46 10 1.0 6.0 0.00 0.01 0.01 65 1027.2
20200219052013 47 11 1.0 9.0 0.00 0.01 0.01 65 1027.2
20200219051552 47 10 3.0 9.0 0.00 0.01 0.01 65 1027.2
20200219051054 47 9 2.0 12.0 0.00 0.01 0.01 64 1027.2
20200219045520 47 9 1.0 6.0 0.00 0.01 0.01 64 1026.9
20200219045039 47 9 1.0 6.0 0.00 0.01 0.01 63 1027.0
20200219044621 48 9 2.0 11.0 0.00 0.01 0.01 63 1027.0
20200219043019 48 9 3.0 15.0 0.00 0.01 0.01 62 1027.0
20200219042532 48 10 3.0 11.0 0.00 0.01 0.01 62 1027.0
20200219042049 48 9 3.0 11.0 0.00 0.01 0.01 61 1026.9
20200219040521 49 9 3.0 12.0 0.00 0.01 0.01 60 1026.8
20200219040103 49 9 4.0 12.0 0.00 0.01 0.01 60 1026.8
20200219035557 49 11 3.0 12.0 0.00 0.01 0.01 60 1026.6
20200219034511 50 11 2.0 8.0 0.00 0.01 0.01 60 1026.5
20200219034020 50 11 2.0 9.0 0.00 0.01 0.01 59 1026.3
20200219033543 50 10 2.0 9.0 0.00 0.01 0.01 59 1026.1
20200219033146 50 10 3.0 8.0 0.00 0.01 0.01 59 1026.1
20200219032507 50 10 1.0 8.0 0.00 0.01 0.01 59 1026.0
20200219032025 50 10 2.0 8.0 0.00 0.01 0.01 58 1026.0
20200219031638 51 11 0.0 9.0 0.00 0.01 0.01 58 1025.9
20200219030010 51 10 1.0 8.0 0.00 0.01 0.01 58 1025.8
20200219025532 51 10 1.0 8.0 0.00 0.01 0.01 58 1025.7
20200219025046 51 10 1.0 8.0 0.00 0.01 0.01 58 1025.5
20200219024607 51 9 1.0 7.0 0.00 0.01 0.01 58 1025.6
20200219023032 51 10 2.0 7.0 0.00 0.01 0.01 57 1025.1
20200219022531 51 11 1.0 5.0 0.00 0.01 0.01 56 1025.2
20200219022052 51 10 0.0 4.0 0.00 0.01 0.01 56 1025.2
20200219020515 52 10 0.0 3.0 0.00 0.01 0.01 55 1025.0
20200219020106 52 10 0.0 2.0 0.00 0.01 0.01 55 1025.1
20200219015556 52 10 0.0 3.0 0.00 0.01 0.01 55 1024.8
20200219014518 52 9 0.0 3.0 0.00 0.01 0.01 54 1025.0
20200219014031 52 10 0.0 3.0 0.00 0.01 0.01 54 1025.0
20200219013549 52 9 0.0 4.0 0.00 0.01 0.01 54 1025.0
20200219012013 52 9 0.0 5.0 0.00 0.01 0.01 53 1024.8
20200219011530 53 9 1.0 5.0 0.00 0.01 0.01 53 1024.5
20200219011053 53 9 1.0 5.0 0.00 0.01 0.01 52 1024.4
20200219005521 53 9 2.0 8.0 0.00 0.01 0.01 52 1024.1
20200219005231 53 11 2.0 10.0 0.00 0.01 0.01 52 1024.0
20200219003507 53 10 2.0 9.0 0.00 0.01 0.01 52 1024.1
20200219003044 53 9 2.0 9.0 0.00 0.01 0.01 51 1024.0
20200219002550 53 9 3.0 9.0 0.00 0.01 0.01 51 1023.9
20200219001009 53 10 1.0 6.0 0.00 0.01 0.01 51 1024.0
20200219000530 53 10 1.0 6.0 0.00 0.01 0.01 51 1024.0
20200219000108 53 11 2.0 8.0 0.00 0.01 0.01 51 1024.1
20200218235601 54 9 1.0 8.0 0.00 0.01 0.01 51 1023.8
20200218234508 54 9 3.0 11.0 0.00 0.01 0.01 50 1023.2
20200218234027 54 9 2.0 12.0 0.00 0.01 0.01 50 1023.0
20200218233547 54 9 3.0 12.0 0.00 0.01 0.01 50 1023.2
20200218232030 55 10 4.0 12.0 0.00 0.01 0.01 49 1022.8
20200218231616 55 9 3.0 12.0 0.00 0.01 0.01 49 1022.6
20200218231036 55 10 3.0 11.0 0.00 0.01 0.01 49 1022.3
20200218230556 55 9 4.0 14.0 0.00 0.01 0.01 48 1022.2
20200218225007 55 9 4.0 13.0 0.00 0.01 0.01 48 1022.0
20200218224627 55 9 7.0 13.0 0.00 0.01 0.01 47 1021.9
20200218224051 56 10 3.0 12.0 0.00 0.01 0.01 48 1021.7
20200218223555 56 360 3.0 11.0 0.00 0.01 0.01 48 1021.8
20200218222505 56 9 3.0 10.0 0.00 0.01 0.01 47 1021.9
20200218222021 56 9 4.0 10.0 0.00 0.01 0.01 47 1021.9
20200218221539 56 10 2.0 13.0 0.00 0.01 0.01 47 1021.7
20200218221055 56 10 4.0 13.0 0.00 0.01 0.01 46 1021.5
20200218220011 56 12 2.0 10.0 0.00 0.01 0.01 46 1021.8
20200218215522 56 11 4.0 11.0 0.00 0.01 0.01 46 1021.7
20200218215036 56 10 5.0 11.0 0.00 0.01 0.01 46 1021.6
20200218214638 56 10 0.0 10.0 0.00 0.01 0.01 46 1021.3
20200218213013 56 9 2.0 11.0 0.00 0.01 0.01 45 1020.8
20200218212529 56 12 3.0 16.0 0.00 0.01 0.01 45 1020.8
20200218212049 55 9 4.0 16.0 0.00 0.01 0.01 45 1020.5
20200218210511 55 11 5.0 14.0 0.00 0.01 0.01 46 1020.5
20200218210047 55 360 6.0 13.0 0.00 0.01 0.01 47 1020.0
20200218205554 55 5 5.0 13.0 0.00 0.01 0.01 47 1019.8
20200218204019 54 9 4.0 14.0 0.00 0.01 0.01 48 1019.9
20200218203539 54 9 6.0 14.0 0.00 0.01 0.01 48 1019.7
20200218203110 54 9 4.0 11.0 0.00 0.01 0.01 48 1019.9
20200218201532 53 10 6.0 15.0 0.00 0.01 0.01 49 1020.3
20200218201040 53 10 6.0 15.0 0.01 0.01 0.01 50 1020.4
20200218200603 52 11 3.0 11.0 0.01 0.01 0.01 52 1020.5
20200218195506 52 9 4.0 10.0 0.01 0.01 0.01 54 1020.4
20200218195025 52 10 1.0 5.0 0.01 0.01 0.01 54 1021.4
20200218194604 51 9 0.0 6.0 0.01 0.01 0.01 54 1021.6
20200218193002 51 9 3.0 9.0 0.01 0.01 0.01 58 1020.6
20200218192524 51 11 3.0 12.0 0.01 0.01 0.01 59 1020.3
20200218192043 51 10 3.0 12.0 0.01 0.01 0.01 60 1020.5
20200218191631 51 9 4.0 12.0 0.01 0.01 0.01 59 1020.4
20200218190104 52 10 2.0 9.0 0.00 0.00 0.00 53 1021.3
20200218185554 52 9 3.0 10.0 0.00 0.00 0.00 53 1021.1
20200218185107 52 9 5.0 13.0 0.00 0.00 0.00 53 1020.8
20200218183538 51 10 4.0 11.0 0.00 0.00 0.00 54 1019.8
20200218183049 51 9 4.0 11.0 0.00 0.00 0.00 54 1019.7
20200218182554 51 9 5.0 12.0 0.00 0.00 0.00 55 1019.8
20200218181010 51 9 3.0 11.0 0.00 0.00 0.00 56 1019.9
20200218180546 51 9 3.0 11.0 0.00 0.00 0.00 57 1020.0
20200218180108 51 11 3.0 14.0 0.00 0.00 0.00 57 1020.1
20200218174546 50 11 3.0 12.0 0.00 0.00 0.00 59 1020.6
20200218174030 50 9 3.0 12.0 0.00 0.00 0.00 58 1020.5
20200218173555 50 10 3.0 14.0 0.00 0.00 0.00 58 1020.3
20200218172012 50 10 1.0 11.0 0.00 0.00 0.00 62 1020.5
20200218171611 49 10 4.0 11.0 0.00 0.00 0.00 62 1020.6
20200218171050 49 10 3.0 11.0 0.00 0.00 0.00 63 1020.4
20200218165516 49 5 3.0 11.0 0.00 0.00 0.00 68 1019.9
20200218165033 48 9 3.0 11.0 0.00 0.00 0.00 68 1020.1
20200218164627 48 360 4.0 11.0 0.00 0.00 0.00 68 1020.1
20200218162514 48 13 2.0 14.0 0.00 0.00 0.00 69 1019.8
20200218162039 48 9 4.0 14.0 0.00 0.00 0.00 69 1019.7
20200218161801 48 11 4.0 13.0 0.00 0.00 0.00 69 1019.7
20200218160019 49 11 4.0 13.0 0.00 0.00 0.00 69 1019.4
20200218155600 49 5 4.0 13.0 0.00 0.00 0.00 69 1019.4
20200218154016 49 9 3.0 11.0 0.00 0.00 0.00 69 1019.2
20200218153539 49 9 5.0 13.0 0.00 0.00 0.00 69 1019.2
20200218153122 49 9 4.0 13.0 0.00 0.00 0.00 70 1019.3
20200218151006 49 9 3.0 13.0 0.00 0.00 0.00 72 1018.6
20200218150522 49 360 2.0 13.0 0.00 0.00 0.00 72 1018.5
20200218150134 49 11 2.0 13.0 0.00 0.00 0.00 72 1018.3
20200218145602 49 9 6.0 15.0 0.00 0.00 0.00 72 1018.4
20200218144014 50 13 3.0 11.0 0.00 0.00 0.00 74 1018.3
20200218143524 50 9 2.0 10.0 0.00 0.00 0.00 75 1018.1
20200218143130 50 9 3.0 12.0 0.00 0.00 0.00 76 1017.8
20200218141507 50 9 3.0 13.0 0.00 0.00 0.00 79 1017.6
20200218141022 50 9 4.0 11.0 0.00 0.00 0.00 81 1017.5
20200218140534 51 12 2.0 11.0 0.00 0.00 0.00 82 1017.2
20200218140147 51 9 2.0 10.0 0.00 0.00 0.00 83 1017.1
20200218135014 51 9 2.0 11.0 0.00 0.00 0.00 84 1016.8
20200218134630 52 360 4.0 11.0 0.00 0.00 0.00 84 1016.7
20200218134040 52 9 2.0 9.0 0.00 0.00 0.00 84 1016.6
20200218133604 52 9 3.0 8.0 0.00 0.00 0.00 84 1016.5
20200218132502 54 10 1.0 11.0 0.00 0.00 0.00 84 1016.4
20200218132020 54 9 4.0 11.0 0.00 0.00 0.00 84 1016.1
20200218131641 54 10 4.0 10.0 0.00 0.00 0.00 83 1015.8
20200218131101 55 11 4.0 8.0 0.00 0.00 0.00 83 1015.7
20200218130031 55 9 2.0 9.0 0.00 0.00 0.00 83 1015.6
20200218125522 56 12 2.0 8.0 0.00 0.00 0.00 82 1015.5
20200218125039 56 9 2.0 9.0 0.00 0.00 0.00 82 1015.2
20200218124625 56 11 3.0 9.0 0.00 0.00 0.00 81 1015.1
20200218123024 57 9 3.0 9.0 0.00 0.00 0.00 80 1014.9
20200218122530 57 9 2.0 9.0 0.00 0.00 0.00 80 1014.8
20200218122048 57 9 3.0 9.0 0.00 0.00 0.00 80 1014.7
20200218120509 58 11 2.0 10.0 0.00 0.00 0.00 78 1014.2
20200218120056 59 9 3.0 10.0 0.00 0.00 0.00 77 1014.2
20200218115608 59 15 0.0 6.0 0.00 0.00 0.00 76 1014.1
20200218114008 59 5 1.0 5.0 0.00 0.00 0.00 74 1013.8
20200218113528 59 10 1.0 5.0 0.00 0.00 0.00 74 1013.9
20200218113125 59 10 0.0 9.0 0.00 0.00 0.00 74 1013.6
20200218112003 59 11 2.0 5.0 0.00 0.00 0.00 73 1013.5
20200218111541 59 9 1.0 5.0 0.00 0.00 0.00 73 1013.5
20200218111042 59 9 0.0 5.0 0.00 0.00 0.00 73 1013.6
20200218110604 60 11 1.0 5.0 0.00 0.00 0.00 73 1013.5
20200218105020 60 10 2.0 6.0 0.00 0.00 0.00 73 1012.9
20200218104627 60 11 1.0 6.0 0.00 0.00 0.00 73 1013.0
20200218104054 60 10 1.0 6.0 0.00 0.00 0.00 73 1013.1
20200218102509 60 11 0.0 5.0 0.00 0.00 0.00 72 1012.6
20200218102032 60 11 0.0 6.0 0.00 0.00 0.00 72 1012.7
20200218101735 60 13 1.0 6.0 0.00 0.00 0.00 72 1013.0